Flag for Germany Weather past 2 weeks in Öhringen, Baden-Württemberg, Germany

Now
58 °F

Overcast.


Feels Like: 58 °F
Forecast: 48 / 69 °F
Wind: 2 mph from Southeast

Location: Oehringen

Current Time: Apr 27, 2015 at 12:49:31 AM

Latest Report: Apr 27, 2015 at 12:00 AM


Visibility: 28 mi

Pressure: 29.64 "Hg

Humidity: 82%

Dew point: 53 °F

Location of ÖhringenLocation

Historic Weather in Öhringen — Graph

°F

Öhringen temperature yesterday

Maximum temperature yesterday: 71 °F (at 6:00 PM)
Minimum temperature yesterday: 53 °F (at 6:00 AM)
Average temperature yesterday: 60 °F

Past Weeks' High & Low Weather Summary

 TemperatureHumidityPressure
High78 °F (Apr 15, 5:00 PM)97% (Apr 26, 1:00 AM)30.47 "Hg (Apr 26, 1:00 AM)
Low34 °F (Apr 23, 6:00 AM)19% (Apr 15, 7:00 PM)29.64 "Hg (Apr 26, 8:00 PM)
Average54 °F58%30.15 "Hg
* Reported Apr 11 11:00 PM — Apr 26 11:00 PM, Öhringen, Weather by CustomWeather, © 2015

Note: Actual official high and low records may vary slightly from our data, if they occured in-between our weather recording intervals... More about our weather records

Advertising

Öhringen weather history for previous 24 hours

 ConditionsComfort  
Time TempWeatherWind HumidityBarometerVisibility
11:00 PM
Sun, Apr 26
59 °FLight rain. Overcast.2 mph81%29.66 "Hg28 mi
10:00 PM61 °FOvercast.2 mph69%29.65 "Hg22 mi
9:00 PM64 °FOvercast.2 mph63%29.65 "Hg37 mi
8:00 PM66 °FOvercast.2 mph56%29.64 "Hg40 mi
7:00 PM68 °FOvercast.2 mph48%29.65 "Hg43 mi
6:00 PM71 °FPartly sunny.1 mph43%29.66 "Hg43 mi
5:00 PM69 °FPartly sunny.1 mph45%29.69 "Hg43 mi
4:00 PM69 °FPassing clouds.1 mph46%29.71 "Hg43 mi
3:00 PM68 °FPassing clouds.2 mph48%29.74 "Hg28 mi
2:00 PM65 °FPartly sunny.3 mph53%29.77 "Hg43 mi
1:00 PM65 °FPassing clouds.3 mph55%29.78 "Hg43 mi
12:00 PM63 °FScattered clouds.3 mph65%29.80 "Hg31 mi
11:00 AM61 °FPartly sunny.5 mph69%29.82 "Hg37 mi
10:00 AM60 °FPassing clouds.3 mph71%29.82 "Hg34 mi
9:00 AM58 °FPartly sunny.1 mph80%29.84 "Hg28 mi
8:00 AM55 °FPassing clouds.No wind84%29.84 "Hg12 mi
7:00 AM53 °FOvercast.1 mph95%29.84 "Hg6 mi
6:00 AM53 °FOvercast.2 mph95%29.84 "Hg6 mi
5:00 AM53 °FFog.1 mph97%29.84 "Hg4 mi
4:00 AM53 °FOvercast.1 mph97%29.85 "Hg6 mi
3:00 AM54 °FDrizzle. Overcast.1 mph95%29.86 "Hg9 mi
2:00 AM54 °FOvercast.2 mph95%29.87 "Hg7 mi
1:00 AM54 °FOvercast.2 mph97%29.87 "Hg2 mi
12:00 AM54 °FLight rain. Overcast.3 mph96%29.86 "Hg4 mi
Weather by CustomWeather, © 2015

See weather overviewHow to use our weather pages